Home   Weather   36°10'N, 95°55'W   Past weeks
Flag for USA

Past Weather in 36°10'N, 95°55'W, USA — Yesterday and Last 2 Weeks

Now
73 °F

Passing clouds.


Feels Like: 75 °F
Forecast: 82 / 61 °F
Wind: 13 mph from South

Location: Tulsa International Airport
Current Time: Sep 25, 2020 at 11:47:17 am
Latest Report: Sep 25, 2020 at 10:53 am
Visibility: 10 mi
Pressure29.94 "Hg
Humidity: 74%
Dew Point: 64 °F
Location of 36°10'N, 95°55'WLocation

Past Weather in 36°10'N, 95°55'W — Graph

°F

36°10'N, 95°55'W Temperature Yesterday

Maximum temperature yesterday: 81 °F (at 3:53 pm)
Minimum temperature yesterday: 57 °F (at 5:28 am)
Average temperature yesterday: 66 °F

High & Low Weather Summary for the Past Weeks

 TemperatureHumidityPressure
High88 °F (Sep 16, 3:53 pm)100% (Sep 10, 9:01 am)30.26 "Hg (Sep 10, 9:01 am)
Low55 °F (Sep 18, 5:53 am)42% (Sep 16, 3:53 pm)29.85 "Hg (Sep 24, 5:53 pm)
Average68 °F80%30.09 "Hg
* Reported Sep 10 9:01 am — Sep 25 9:53 am, 36°10'N, 95°55'W. Weather by CustomWeather, © 2020

Note: Actual official high and low records may vary slightly from our data, if they occured in-between our weather recording intervals... More about our weather records

36°10'N, 95°55'W Weather History for the Previous 24 Hours

Scroll right to see more
 ConditionsComfort  
Time TempWeatherWind HumidityBarometerVisibility
9:53 am
Fri, Sep 25
70 °FPassing clouds.12 mph79%29.95 "Hg10 mi
8:53 am66 °FSunny.12 mph87%29.94 "Hg10 mi
7:53 am64 °FSunny.10 mph90%29.93 "Hg10 mi
6:53 am63 °FClear.10 mph93%29.92 "Hg10 mi
5:53 am64 °FClear.9 mph90%29.90 "Hg10 mi
4:53 am64 °FClear.7 mph90%29.89 "Hg10 mi
3:53 am64 °FClear.6 mph90%29.88 "Hg10 mi
2:53 am65 °FClear.6 mph87%29.88 "Hg10 mi
1:53 am67 °FClear.9 mph81%29.88 "Hg10 mi
12:53 am68 °FClear.12 mph78%29.88 "Hg10 mi
11:53 pm
Thu, Sep 24
68 °FClear.9 mph78%29.88 "Hg10 mi
10:53 pm69 °FClear.8 mph79%29.88 "Hg10 mi
9:53 pm71 °FClear.10 mph73%29.89 "Hg10 mi
8:53 pm70 °FClear.6 mph76%29.88 "Hg10 mi
7:53 pm73 °FClear.7 mph69%29.87 "Hg10 mi
6:53 pm78 °FSunny.9 mph58%29.86 "Hg10 mi
5:53 pm80 °FSunny.8 mph52%29.85 "Hg10 mi
4:53 pm81 °FSunny.6 mph47%29.86 "Hg10 mi
3:53 pm81 °FSunny.3 mph51%29.87 "Hg10 mi
2:53 pm80 °FSunny.3 mph51%29.88 "Hg10 mi
1:53 pm77 °FSunny.7 mph58%29.91 "Hg10 mi
12:53 pm76 °FPassing clouds.7 mph58%29.94 "Hg10 mi
11:53 am74 °FPassing clouds.No wind67%29.96 "Hg10 mi
Weather by CustomWeather, © 2020

See weather overview